This is the latest recevied weather packets stored in our database for station/object KG4ZVW. If no packets are shown the sender has not sent any weather packets the latest 10 day(s).
| Time | Temp. | Humidity | Pressure | Rain* | Wind** | Luminosity | Snow |
|---|---|---|---|---|---|---|---|
| 1778024614 | 25° C | 65% | 1014.6 hPa | 0 mm | - | 18 W/m² | - |
| 1778024307 | 25° C | 64% | 1014.6 hPa | 0 mm | - | 25 W/m² | - |
| 1778024007 | 25° C | 64% | 1014.6 hPa | 0 mm | - | 32 W/m² | - |
| 1778023702 | 25° C | 62% | 1014.6 hPa | 0 mm | - | 37 W/m² | - |
| 1778023416 | 25° C | 62% | 1014.6 hPa | 0 mm | - | 46 W/m² | - |
| 1778023112 | 25.56° C | 60% | 1014.6 hPa | 0 mm | - | 53 W/m² | - |
| 1778022808 | 25.56° C | 59% | 1014.6 hPa | 0 mm | - | 65 W/m² | - |
| 1778022505 | 25.56° C | 59% | 1014.7 hPa | 0 mm | - | 79 W/m² | - |
| 1778022200 | 25.56° C | 61% | 1014.7 hPa | 0 mm | - | 95 W/m² | - |
| 1778021919 | 25.56° C | 60% | 1014.7 hPa | 0 mm | - | 111 W/m² | - |
| 1778021615 | 26.11° C | 61% | 1015 hPa | 0 mm | - | 120 W/m² | - |
| 1778021310 | 26.11° C | 61% | 1015 hPa | 0 mm | - | 141 W/m² | - |
| 1778021006 | 26.11° C | 60% | 1015 hPa | 0 mm | - | 151 W/m² | - |
| 1778020721 | 26.11° C | 59% | 1014.9 hPa | 0 mm | - | 185 W/m² | - |
| 1778020414 | 26.11° C | 60% | 1014.9 hPa | 0 mm | - | 204 W/m² | - |
| 1778020114 | 26.67° C | 58% | 1014.9 hPa | 0 mm | - | 211 W/m² | - |
| 1778019809 | 26.67° C | 56% | 1015 hPa | 0 mm | - | 195 W/m² | - |
| 1778019508 | 26.67° C | 54% | 1015 hPa | 0 mm | - | 239 W/m² | - |
| 1778019205 | 26.67° C | 55% | 1015 hPa | 0 mm | - | 262 W/m² | - |
| 1778018902 | 26.67° C | 55% | 1015 hPa | 0 mm | - | 281 W/m² | - |
| 1778018614 | 26.67° C | 56% | 1015 hPa | 0 mm | - | 308 W/m² | - |
| 1778018313 | 26.67° C | 57% | 1015 hPa | 0 mm | - | 339 W/m² | - |
| 1778018008 | 27.22° C | 59% | 1014.9 hPa | 0 mm | - | 352 W/m² | - |
| 1778017705 | 27.22° C | 59% | 1014.9 hPa | 0 mm | - | 357 W/m² | - |
| 1778017421 | 27.22° C | 56% | 1014.9 hPa | 0 mm | - | 380 W/m² | - |
* Rain latest hour (hover to see other rain measurements)
** Current wind speed in m/s (hover to see current wind gust speed)